Location: Darmstadt
(49.8706°N, 8.6494°E)
Time: 06:06:33
(UTC+01:00)

ATLAS 2AS CENTAUR R/B - Pass Details

Date: 31 October 2020
Orbit: 939 x 1273 km, 63.7° (Epoch: 23 November)

Event Time Altitude Azimuth Distance (km) Brightness Sun altitude
Rises 19:34:40 0° 317° (NW) 4,158 6.5 -24.7°
Reaches altitude 10° 19:37:32 10° 316° (NW) 3,152 5.8 -25.2°
Maximum altitude 19:45:05 79° 232° (SW) 1,160 2.8 -26.4°
Enters shadow 19:47:37 44° 153° (SSE) 1,504 3.2 -26.8°
